[[{"header":{"parameterUnit":"m.s-1","parameterCategory":1,"la1":30.2991,"la2":30.254,"lo1":-89.0895,"lo2":-89.0444,"dy":0.0017,"dx":0.0017,"nx":28,"ny":28,"refTime":"2024-08-25T09:00:00:Z","depth":0,"parameterNumber":2,"parameterNumberName":"U-component_of_WINDS"},"data":[0,0,0,0,0,0,0,0,0,0,0,0,0,0,0,0,0,0,0,0,0,0,0,0,0,0,0,0,0,0,0,0,0,0,0,0,0,0,0,0,0,0,0,0,0,0,0,0,0,0,0,0,0,0,0,0,0,0,-5.5964,-5.5965,0,-5.6018,-5.6019,-5.602,-5.5943,-5.594,-5.5938,-5.5935,-5.599,-5.5993,-5.5997,0,0,0,0,0,0,0,0,0,0,0,0,0,-5.5793,-5.5797,-5.5964,-5.5965,-5.5965,-5.6018,-5.6019,-5.602,-5.5944,-5.594,-5.5937,-5.5934,-5.5988,-5.5993,-5.5998,0,0,0,0,0,0,0,0,0,0,0,0,0,-5.586,-5.5798,-5.5964,-5.5934,-5.5932,-5.6018,-5.6019,-5.602,-5.5944,-5.594,-5.5936,-5.5932,-5.5987,-5.5993,-5.5998,-5.6117,0,0,-5.6017,-5.6019,0,0,0,0,0,0,0,0,-5.5856,-5.5866,-5.5937,-5.5936,-5.5934,-5.597,-5.5979,-5.6052,-5.5945,-5.5939,-5.5935,-5.593,-5.5986,-5.5992,-5.6011,-5.6119,-5.6122,-5.6017,-5.6021,-5.6023,-5.6025,0,0,0,0,0,0,0,-5.5851,-5.5863,-5.5985,-5.5939,-5.5936,-5.5917,-5.5922,-5.5992,-5.5985,-5.594,-5.5934,-5.5942,-5.5984,-5.6006,-5.6012,-5.6122,-5.6017,-5.6022,-5.6026,-5.6028,-5.6333,-5.6337,0,0,0,0,0,0,-5.5851,-5.586,-5.5984,-5.5987,-5.5884,-5.5924,-5.5929,-5.5962,-5.5984,-5.5983,-5.5945,-5.5938,-5.5997,-5.6005,-5.6013,-5.6155,-5.6023,-5.6029,-5.6032,-5.6328,-5.6334,-5.6338,0,0,0,0,0,0,-5.5847,-5.5862,-5.5981,-5.5922,-5.5936,-5.5931,-5.5969,-5.5966,-5.5987,-5.5988,-5.5986,-5.5968,-5.5994,-5.6005,-5.6092,-5.6156,-5.6032,-5.6037,-5.6323,-5.633,-5.6336,-5.6438,0,0,0,0,0,0,-5.5843,-5.5862,-5.5906,-5.5924,-5.5939,-5.606,-5.5973,-5.597,-5.5997,-5.5988,-5.6009,-5.6009,-5.5992,-5.6084,-5.6098,-5.6162,-5.6042,-5.6317,-5.6326,-5.6334,-5.6429,-5.6447,-5.6463,0,0,0,0,0,-5.5837,-5.5932,-5.5909,-5.5924,-5.5995,-5.6063,-5.6072,-5.6051,-5.6003,-5.6048,-5.6049,-5.6008,-5.6146,-5.6093,-5.6109,-5.6175,-5.6313,-5.6323,-5.6333,-5.6421,-5.6444,-5.6463,0,0,0,0,0,0,-5.5921,-5.5934,-5.5908,-5.6012,-5.6038,-5.605,-5.6107,-5.6076,-5.6115,-5.6105,-5.6077,-5.6082,-5.6176,-5.6184,-5.6125,-5.6292,-5.6222,-5.6235,-5.6283,-5.6305,-5.6321,-5.6318,-5.6047,0,0,0,0,0,-5.5952,-5.6007,-5.6015,-5.6105,-5.612,-5.6111,-5.614,-5.6122,-5.6147,-5.6157,-5.6164,-5.619,-5.6239,-5.6272,-5.6317,-5.643,-5.6434,-5.6483,-5.65,-5.6514,-5.6527,-5.6589,-5.6611,-5.6372,-5.6372,-5.6371,0,0,-5.6016,-5.603,-5.6066,-5.6123,-5.614,-5.6198,-5.6121,-5.6184,-5.6227,-5.6166,-5.625,-5.6257,-5.6283,-5.6384,-5.6429,-5.6394,-5.6594,-5.6527,-5.6538,-5.6543,-5.6601,-5.6624,-5.6644,-5.6379,-5.6377,-5.6376,0,0,-5.6162,-5.6178,-5.6256,-5.6276,-5.6304,-5.6298,-5.6317,-5.6336,-5.6338,-5.6421,-5.6378,-5.6428,-5.6513,-5.6534,-5.6556,-5.6714,-5.6678,-5.6729,-5.6819,-5.6879,-5.6898,-5.6915,-5.6972,-5.6993,-5.6741,-5.6741,-5.6742,0,-5.6238,-5.6324,-5.63,-5.6368,-5.6395,-5.6344,-5.6424,-5.6444,-5.6485,-5.6505,-5.6465,-5.6572,-5.6586,-5.6692,-5.6731,-5.675,-5.6771,-5.6726,-5.6897,-5.6914,-5.6929,-5.6983,-5.7005,-5.6747,-5.6747,-5.6746,-5.6746,0,-5.6416,-5.6476,-5.6536,-5.6579,-5.6612,-5.6686,-5.6674,-5.671,-5.669,-5.6689,-5.6775,-5.6791,-5.6839,-5.6863,-5.6843,-5.6967,-5.6945,-5.6902,-5.6831,-5.6958,-5.7009,-5.703,-5.6756,-5.6754,-5.6752,-5.6751,0,0,-5.6616,-5.6647,-5.6669,-5.6689,-5.6717,-5.6763,-5.6834,-5.6883,-5.6916,-5.6946,-5.7006,-5.708,-5.7041,-5.7067,-5.7049,-5.7102,-5.7228,-5.7052,-5.7053,-5.7086,-5.7367,-5.74,-5.7425,-5.7204,-5.7208,-5.7211,-5.7365,0,-5.6764,-5.6888,-5.687,-5.699,-5.7046,-5.6999,-5.7062,-5.7086,-5.7087,-5.7135,-5.7135,-5.7189,-5.7133,-5.7148,-5.7199,-5.7202,-5.7284,-5.719,-5.726,-5.7263,-5.7256,-5.7451,-5.7486,-5.7631,-5.7385,-5.7388,-5.7391,0,-5.6952,-5.6991,-5.7117,-5.7139,-5.7161,-5.7218,-5.7262,-5.7308,-5.7335,-5.7332,-5.7361,-5.7334,-5.7406,-5.7334,-5.7434,-5.7371,-5.7398,-5.7404,-5.7409,-5.7416,-5.7335,-5.7464,-5.7676,-5.7699,-5.7422,-5.7419,-5.7417,0,-5.7087,-5.7171,-5.7258,-5.7276,-5.7303,-5.7344,-5.7357,-5.738,-5.7411,-5.7449,-5.7469,-5.7515,-5.7541,-5.7577,-5.7564,-5.7512,-5.7667,-5.7593,-5.7667,-5.7668,-5.7702,-5.77,-5.7924,-5.7719,-5.7718,-5.7718,-5.7718,0,-5.7254,-5.7333,-5.732,-5.7373,-5.7461,-5.744,-5.7527,-5.7534,-5.7556,-5.761,-5.7572,-5.7624,-5.7602,-5.7653,-5.7643,-5.7728,-5.7739,-5.774,-5.7736,-5.7744,-5.7744,-5.7762,-5.7752,-5.7724,-5.7722,-5.7721,-5.772,0,-5.742,-5.7414,-5.7506,-5.7524,-5.7531,-5.7595,-5.7611,-5.7661,-5.766,-5.773,-5.7745,-5.7743,-5.78,-5.7791,-5.7854,-5.7847,-5.7954,-5.7938,-5.7946,-5.7942,-5.8018,-5.8011,-5.8261,-5.8293,-5.8067,-5.8069,-5.807,0,-5.7527,-5.7588,-5.7614,-5.7648,-5.7664,-5.772,-5.7752,-5.7733,-5.7768,-5.7805,-5.7851,-5.7906,-5.7949,-5.8044,-5.8048,-5.8097,-5.8082,-5.8166,-5.8089,-5.8096,-5.8085,-5.8082,-5.8089,-5.8182,-5.8184,-5.8186,-5.8188,0,-5.7719,-5.7714,-5.7762,-5.781,-5.7849,-5.7886,-5.7918,-5.7948,-5.7933,-5.7975,-5.8034,-5.8067,-5.8133,-5.8189,-5.8235,-5.8248,-5.8217,-5.8212,-5.8232,-5.8241,-5.8244,-5.8245,-5.7989,-5.8207,-5.8205,-5.8203,-5.8202,-5.8202,-5.786,-5.7912,-5.7939,-5.7994,-5.8018,-5.805,-5.8099,-5.8104,-5.8154,-5.8207,-5.8193,-5.8261,-5.8288,-5.8347,-5.8365,-5.8418,-5.8387,-5.8416,-5.8423,-5.8431,-5.8441,-5.8235,-5.8426,-5.8426,-5.8425,-5.8425,-5.8425,0,-5.8051,-5.8067,-5.8118,-5.8166,-5.821,-5.8177,-5.8212,-5.825,-5.8311,-5.8339,-5.8383,-5.8452,-5.8506,-5.8515,-5.8567,-5.8608,-5.8594,-5.8622,-5.8619,-5.8623,-5.8465,-5.8443,-5.8632,-5.8632,-5.8632,-5.8632,-5.8632,-5.8631,-5.8156,-5.8243,-5.8241,-5.834,-5.8354,-5.8421,-5.8445,-5.8474,-5.8497,-5.8576,-5.8621,-5.8627,-5.8649,-5.8702,-5.875,-5.8751,-5.8773,-5.8806,-5.8802,-5.8654,-5.8634,-5.8614,-5.8594,-5.8811,-5.8811,-5.8956,-5.8957,-5.8958]},{"header":{"parameterUnit":"m.s-1","parameterCategory":1,"la1":30.2991,"la2":30.254,"lo1":-89.0895,"lo2":-89.0444,"dy":0.0017,"dx":0.0017,"nx":28,"ny":28,"refTime":"2024-08-25T09:00:00:Z","depth":0,"parameterNumber":3,"parameterNumberName":"V-component_of_WINDS"},"data":[0,0,0,0,0,0,0,0,0,0,0,0,0,0,0,0,0,0,0,0,0,0,0,0,0,0,0,0,0,0,0,0,0,0,0,0,0,0,0,0,0,0,0,0,0,0,0,0,0,0,0,0,0,0,0,0,0,0,-1.4612,-1.461,0,-1.4505,-1.4504,-1.4503,-1.4441,-1.444,-1.444,-1.444,-1.4332,-1.433,-1.4327,0,0,0,0,0,0,0,0,0,0,0,0,0,-1.476,-1.4758,-1.4612,-1.461,-1.4609,-1.4506,-1.4504,-1.4503,-1.4441,-1.444,-1.444,-1.444,-1.4333,-1.433,-1.4327,0,0,0,0,0,0,0,0,0,0,0,0,0,-1.4679,-1.4757,-1.4612,-1.4566,-1.456,-1.4506,-1.4504,-1.4502,-1.4441,-1.444,-1.444,-1.444,-1.4334,-1.433,-1.4326,-1.431,0,0,-1.4314,-1.4313,0,0,0,0,0,0,0,0,-1.4684,-1.4674,-1.4574,-1.4569,-1.4563,-1.4486,-1.4517,-1.4438,-1.4441,-1.4486,-1.444,-1.444,-1.4384,-1.4376,-1.4357,-1.4305,-1.43,-1.4314,-1.4312,-1.431,-1.4309,0,0,0,0,0,0,0,-1.469,-1.4678,-1.457,-1.4572,-1.4566,-1.455,-1.4538,-1.4502,-1.4439,-1.4482,-1.4478,-1.4466,-1.4381,-1.4361,-1.4354,-1.4298,-1.4314,-1.4311,-1.4308,-1.4307,-1.4226,-1.4226,0,0,0,0,0,0,-1.4703,-1.4683,-1.4573,-1.4566,-1.4624,-1.4548,-1.4534,-1.4511,-1.4439,-1.4427,-1.4466,-1.4463,-1.4367,-1.4358,-1.435,-1.4324,-1.431,-1.4306,-1.4304,-1.4226,-1.4226,-1.4226,0,0,0,0,0,0,-1.4706,-1.4693,-1.4577,-1.4623,-1.4607,-1.4545,-1.452,-1.4509,-1.4489,-1.4427,-1.4415,-1.4457,-1.4367,-1.4355,-1.432,-1.432,-1.4304,-1.4301,-1.4225,-1.4226,-1.4226,-1.4274,0,0,0,0,0,0,-1.4711,-1.4695,-1.4688,-1.4624,-1.4605,-1.4549,-1.452,-1.4507,-1.4482,-1.4477,-1.4415,-1.4404,-1.4366,-1.4326,-1.4316,-1.4314,-1.4298,-1.4225,-1.4226,-1.4226,-1.4273,-1.4276,-1.428,0,0,0,0,0,-1.4716,-1.4707,-1.4688,-1.4675,-1.4596,-1.455,-1.4539,-1.4494,-1.4483,-1.4475,-1.4435,-1.4406,-1.4321,-1.4323,-1.4311,-1.4308,-1.4225,-1.4225,-1.4226,-1.4271,-1.4276,-1.428,0,0,0,0,0,0,-1.4774,-1.4698,-1.4676,-1.4646,-1.4605,-1.4539,-1.4528,-1.4501,-1.4462,-1.4459,-1.4406,-1.4392,-1.4362,-1.4331,-1.4334,-1.4287,-1.427,-1.4268,-1.4308,-1.4312,-1.4316,-1.4324,-1.4294,0,0,0,0,0,-1.4783,-1.4752,-1.4687,-1.4666,-1.4646,-1.4591,-1.457,-1.4538,-1.4494,-1.4476,-1.4433,-1.4391,-1.4354,-1.4332,-1.4295,-1.4268,-1.4253,-1.426,-1.4263,-1.4267,-1.4266,-1.4248,-1.425,-1.4228,-1.4228,-1.4228,0,0,-1.4801,-1.4756,-1.474,-1.4677,-1.4641,-1.461,-1.4577,-1.4546,-1.4522,-1.4471,-1.4435,-1.4402,-1.4351,-1.432,-1.4303,-1.4293,-1.4268,-1.4267,-1.427,-1.4267,-1.4248,-1.4251,-1.4253,-1.4228,-1.4228,-1.4228,0,0,-1.4819,-1.4782,-1.476,-1.4724,-1.4671,-1.4634,-1.4628,-1.4567,-1.4543,-1.4505,-1.4466,-1.4437,-1.4376,-1.434,-1.4315,-1.4317,-1.429,-1.4307,-1.4326,-1.4309,-1.4311,-1.4312,-1.4312,-1.4313,-1.4306,-1.4306,-1.4306,0,-1.4849,-1.48,-1.4752,-1.4722,-1.4695,-1.4647,-1.4624,-1.4592,-1.453,-1.4512,-1.4501,-1.4422,-1.4385,-1.4343,-1.4344,-1.4325,-1.4317,-1.4314,-1.4314,-1.4315,-1.4315,-1.4315,-1.4315,-1.4309,-1.4308,-1.4308,-1.4308,0,-1.4839,-1.4806,-1.4795,-1.4734,-1.4706,-1.468,-1.4627,-1.4604,-1.4575,-1.4539,-1.4501,-1.4454,-1.4406,-1.4394,-1.4366,-1.4349,-1.4344,-1.4325,-1.4306,-1.4321,-1.4319,-1.4319,-1.4312,-1.4311,-1.4311,-1.431,0,0,-1.4891,-1.4803,-1.48,-1.4771,-1.4708,-1.4681,-1.4652,-1.4605,-1.4586,-1.4544,-1.4518,-1.4466,-1.4447,-1.4418,-1.4385,-1.4371,-1.4375,-1.4353,-1.4351,-1.4358,-1.4351,-1.4366,-1.4367,-1.4356,-1.4356,-1.4355,-1.4355,0,-1.4899,-1.4845,-1.48,-1.4763,-1.4731,-1.4684,-1.4659,-1.4617,-1.4582,-1.455,-1.4511,-1.4475,-1.4453,-1.4435,-1.4419,-1.4378,-1.4372,-1.4377,-1.4331,-1.433,-1.4345,-1.4366,-1.4382,-1.4384,-1.4355,-1.4354,-1.4354,0,-1.4901,-1.486,-1.482,-1.4758,-1.4743,-1.4721,-1.4673,-1.4643,-1.4594,-1.4569,-1.4536,-1.4502,-1.4468,-1.4453,-1.4407,-1.4411,-1.4389,-1.4366,-1.4365,-1.4359,-1.4343,-1.436,-1.4384,-1.4384,-1.4353,-1.4353,-1.4353,0,-1.4942,-1.4877,-1.4843,-1.4821,-1.4748,-1.4733,-1.4703,-1.4653,-1.4627,-1.4585,-1.4567,-1.4523,-1.4498,-1.4464,-1.4418,-1.4411,-1.4376,-1.4357,-1.4354,-1.4356,-1.4349,-1.435,-1.437,-1.4336,-1.4336,-1.4336,-1.4336,0,-1.4956,-1.4933,-1.4861,-1.484,-1.4812,-1.4761,-1.4734,-1.4699,-1.4656,-1.4627,-1.4584,-1.4558,-1.4499,-1.4466,-1.443,-1.4397,-1.4386,-1.4365,-1.4356,-1.4369,-1.4371,-1.4354,-1.4352,-1.4336,-1.4336,-1.4336,-1.4336,0,-1.4997,-1.4948,-1.4909,-1.4843,-1.4825,-1.4808,-1.4751,-1.4729,-1.4691,-1.4656,-1.4644,-1.4586,-1.4544,-1.4495,-1.4438,-1.4414,-1.4383,-1.4369,-1.4399,-1.4394,-1.4394,-1.4394,-1.4402,-1.44,-1.4369,-1.437,-1.437,0,-1.5009,-1.499,-1.4921,-1.4899,-1.4869,-1.4834,-1.4806,-1.4754,-1.4727,-1.4669,-1.4654,-1.4609,-1.4571,-1.4507,-1.4459,-1.4415,-1.44,-1.4405,-1.4393,-1.4406,-1.4399,-1.44,-1.4398,-1.4409,-1.441,-1.441,-1.441,0,-1.5035,-1.5011,-1.4973,-1.4927,-1.4895,-1.4856,-1.4815,-1.4799,-1.4738,-1.4711,-1.4667,-1.4637,-1.4578,-1.4534,-1.4484,-1.4452,-1.4421,-1.4415,-1.4411,-1.4424,-1.4442,-1.4432,-1.4408,-1.4415,-1.4414,-1.4414,-1.4414,-1.4414,-1.5061,-1.5041,-1.4989,-1.4948,-1.4912,-1.4874,-1.485,-1.4809,-1.4771,-1.4719,-1.469,-1.4648,-1.4598,-1.4527,-1.4496,-1.4461,-1.445,-1.4446,-1.4445,-1.4445,-1.4448,-1.4448,-1.4452,-1.4452,-1.4452,-1.4451,-1.4451,0,-1.5084,-1.5048,-1.501,-1.4954,-1.4921,-1.4894,-1.4847,-1.4822,-1.4785,-1.4741,-1.4703,-1.4653,-1.4609,-1.4558,-1.4511,-1.4493,-1.4478,-1.4483,-1.4483,-1.4476,-1.4461,-1.4468,-1.4496,-1.4496,-1.4496,-1.4496,-1.4496,-1.4496,-1.5092,-1.5056,-1.5026,-1.4972,-1.4936,-1.4893,-1.4869,-1.4833,-1.4798,-1.4743,-1.4707,-1.4673,-1.4625,-1.4574,-1.4533,-1.4519,-1.4504,-1.4513,-1.4494,-1.4481,-1.4477,-1.4474,-1.448,-1.451,-1.451,-1.4512,-1.4512,-1.4512]}]]